Terminal Aerodrome Forecast
Issued by NWS

Home | Current Version | Previous Version | Text Only | Print | Product List | Glossary On
Versions: 1 2 3 4 5 6 7 8 9 10 11 12 13 14 15 16 17 18 19
863
FTUS41 KPBZ 222329
TAFAGC
TAF
KAGC 222329Z 2300/2324 23006KT P6SM OVC040
     FM230300 20005KT P6SM BKN025
     FM230600 20003KT P6SM OVC012
     FM230800 20004KT 4SM BR OVC008
     FM231700 23007KT P6SM VCSH BKN012
     FM232000 24008KT P6SM BKN025=

USA.gov is the U.S. government's official web portal to all federal, state and local government web resources and services.